Regional Weather Roundup
Issued by NWS

Home | Current Version | Previous Version | Graphics & Text | Print | Product List | Glossary On
Versions: 1 2 3 4 5 6 7 8 9 10 11 12 13 14 15 16 17 18 19 20 21 22 23 24 25 26 27 28 29 30 31 32 33 34 35 36 37 38 39 40 41 42 43 44 45 46 47 48 49 50
000
ASUS43 KDTX 011910
RWRMI
MICHIGAN HOURLY REGIONAL WEATHER ROUNDUP
NATIONAL WEATHER SERVICE DETROIT/PONTIAC MI
300 PM EDT MON SEP 01 2014

NOTE: "FAIR" INDICATES FEW OR NO CLOUDS BELOW 12,000 FEET WITH NO
SIGNIFICANT WEATHER AND/OR OBSTRUCTION TO VISIBILITY.

MIZ047>049-052>055-059>063-066>070-074>076-081>083-012000-
SOUTHEAST LOWER MICHIGAN

CITY           SKY/WX    TMP DP  RH WIND       PRES   REMARKS
ADRIAN         CLOUDY    86  69  56 SW22G32   29.82F HX  90
ALMA           HVY RAIN  75  68  78 W16G30    29.77R
ANN ARBOR      MOSUNNY   82  70  65 S14G22    29.79
BAD AXE        PTSUNNY   80  71  73 S21G28    29.73F
DETROIT CITY   PTSUNNY   83  70  64 S16G24    29.80F
DETROIT        CLOUDY    84  71  65 S14G22    29.80F
FLINT          CLOUDY    84  69  60 S14G23    29.77R
GROSSE ILE     PTSUNNY   79  73  83 SE10G17   29.80F
HILLSDALE      CLOUDY    82  71  68 SW10G16   29.82S
HOWELL         CLOUDY    79  69  72 S12G17    29.79S

CITY           SKY/WX    TMP DP  RH WIND       PRES   REMARKS
JACKSON        CLOUDY    83  69  62 S17G28    29.79F
LAMBERTVILLE   PTSUNNY   86  68  54 SW15G22   29.82F
LANSING        CLOUDY    80  69  69 SW16G26   29.77S
LAPEER         NOT AVBL
MASON          CLOUDY    81  70  71 SW12G20   29.78S
MONROE         PTSUNNY   84  68  58 SW21      29.79F
MT. CLEMENS    MOSUNNY   80  70  72 S17       29.79F
PONTIAC        CLOUDY    80  69  69 S13       29.78F
PORT HOPE        N/A     82  69  64 VRB7G20   29.70F
PORT HURON     PTSUNNY   79  72  78 S17G26    29.79F
TRI CITIES     CLOUDY    82  71  69 S16G25    29.72F
YPSILANTI      PTSUNNY   87  70  56 S14G23    29.80F HX  92
$$
MIZ043>046-050>051-056>058-064>065-071>073-077>080-012000-
SOUTHWEST LOWER MICHIGAN

CITY           SKY/WX    TMP DP  RH WIND       PRES   REMARKS
BATTLE CREEK   CLOUDY    79  69  71 SW20G25   29.78F
BENTON HARBOR  PTSUNNY   79  72  79 SW17G24   29.78S
BIG RAPIDS     PTSUNNY   77  70  80 W13G26    29.72S
COLDWATER      PTSUNNY   82  70  67 S14G21    29.79F
HOLLAND        PTSUNNY   77  72  84 SW15      29.76S
GRAND RAPIDS   CLOUDY    76  75  97 SW15G28   29.76S
KALAMAZOO      CLOUDY    77  72  84 W9        29.78R
MARSHALL       CLOUDY    82  70  67 S18G25    29.78S
MUSKEGON       PTSUNNY   76  68  76 SW15      29.74R
$$
MIZ016>042-012000-
NORTHERN LOWER MICHIGAN

CITY           SKY/WX    TMP DP  RH WIND       PRES   REMARKS
ALPENA         CLOUDY    80  68  66 S17G28    29.64F
BEAVER ISLAND  CLOUDY    69  68  96 SW8       29.64F FOG
BELLAIRE       CLOUDY    71  67  87 W3        29.68F
CADILLAC       CLOUDY    68  66  92 W10G18    29.74R
CHARLEVOIX     CLOUDY    71  70  96 SW9       29.69F
FRANKFORT      CLOUDY    70  66  86 SW7       29.68F
GAYLORD        LGT RAIN  67  65  93 W12G20    29.70R
GRAYLING       LGT RAIN  72  71  99 W15G23    29.72R
HARBOR SPRINGS LGT RAIN  67  65  96 CALM      29.68F
HOUGHTON LAKE  LGT RAIN  72  68  87 SW17G24   29.73R
MANISTEE       CLOUDY    70  66  88 SW6       29.70F
OSCODA         PTSUNNY   80  69  70 S15G25    29.68F
PELLSTON       RAIN      67  65  93 W6        29.67R FOG
TRAVERSE CITY  CLOUDY    73  66  78 SW6       29.67S
$$
MIZ007>008-015-012000-
EASTERN UPPER MICHIGAN

CITY           SKY/WX    TMP DP  RH WIND       PRES   REMARKS
KINROSS        CLOUDY    70  66  88 S13G18    29.65R
MACKINAC ISLAN LGT RAIN  65  64  99 SW13G24   29.65R
NEWBERRY       CLOUDY    67  66  97 SW7       29.61F FOG
S. S. MARIE    RAIN      68  65  90 VRB7      29.61F FOG
$$
MIZ004>006-011>014-085-012000-
CENTRAL UPPER MICHIGAN

CITY           SKY/WX    TMP DP  RH WIND       PRES   REMARKS
MANISTIQUE     CLOUDY    69  67  94 S7        29.60F FOG
ESCANABA       CLOUDY    70  63  78 SW14G20   29.60S
MENOMINEE      CLOUDY    70  64  83 SW12      29.63S
SAWYER-GWINN   CLOUDY    68  63  83 SW13G20   29.61R
$$
MIZ001>003-009>011-084-012000-
WESTERN UPPER MICHIGAN

CITY           SKY/WX    TMP DP  RH WIND       PRES   REMARKS
IRON MOUNTAIN  CLOUDY    71  62  73 SW8       29.61F
HOUGHTON       CLOUDY    65  60  84 W20       29.58S
COPPER HARBOR    N/A     65  61  87 N5        29.55F
$$

ABBREVIATIONS USED IN REMARKS
   TC - TEMPERATURE IN CELSIUS
  WCI - WIND CHILL INDEX
   HX - HEAT INDEX
  VSB - VISIBILITY



USA.gov is the U.S. government's official web portal to all federal, state and local government web resources and services.